Rbgn^[z[y[W
メイン
   新天体発見情報
     Comet P/2012 Q3 = 2021 L4 (PANSTARRS)
投稿するにはまず登録を

スレッド表示 | 新しいものから 前のトピック | 次のトピック | 下へ
投稿者 スレッド
佐藤裕久
投稿日時: 2023-1-31 21:35
モデレータ
登録日: 2005-6-12
居住地: 日本
投稿: 2424
オンライン
Comet P/2012 Q3 = 2021 L4 (PANSTARRS)

K. Ly (El Monte, CA, 米国)とS. Deen (Simi Valley, CA, 米国)の通報によると、
2012年8月と9月、M. Alexandersenが、Maunakeaにある3.6-m Canada-France-Hawaii
天文台で得た画像からP/2021 L4 (CBET 4986を参照)と同定した。
この彗星は、完全に小惑星状で彗星活動の兆候は見られなかった。

同定位置は次のとおり、

     2012 UT             R.A. (2000) Decl.       Mag.   Observer
     Aug. 18.50046    1 39 27.19   +26 42 15.1   23.4   Alexandersen
          18.53950    1 39 27.47   +26 42 22.1   23.4     "
          28.46759    1 39 50.50   +27 04 30.1   23.3     "
     Sep. 12.39827    1 36 31.48   +27 08 23.5   23.0     "
          14.43438    1 35 42.91   +27 05 46.9   23.0     "

MPCの連結軌道要素と位置推算表は次のとおり、

Orbital elements:
    P/2021 L4 (PANSTARRS)                                                       
Epoch 2023 Feb. 25.0 TT = JDT 2460000.5                                         
T 2025 Apr. 20.73682 TT                                 Rudenko                 
q   2.7919881            (2000.0)            P               Q                  
n   0.17493009     Peri.  234.40952     -0.43196638     -0.86348663             
a   3.1663557      Node   243.20588     +0.89269016     -0.36822432             
e   0.1182330      Incl.   16.95947     +0.12848862     -0.34467620             
P   5.63                                                                        
From 49 observations 2012 Aug. 18-2022 Sept. 17, mean residual 0".3.            
                                                                                
Ephemeris:
Date    TT    R. A. (2000) Decl.     Delta      r    Elong.  Phase   m1
2022 12 28    20 45 38.7 -03 39 59   4.2018  3.4939    39.1    10.2  22.1
...
2023 01 12    21 04 05.9 -02 37 11   4.3080  3.4861    29.5     8.0  22.1
...
2023 01 20    21 14 09.9 -01 57 08   4.3507  3.4817    24.8     6.8  22.1
...
2023 01 26    21 21 46.8 -01 24 14   4.3760  3.4783    21.5     5.9  22.1
2023 01 27    21 23 03.2 -01 18 32   4.3796  3.4778    20.9     5.8  22.1
2023 01 28    21 24 19.7 -01 12 46   4.3831  3.4772    20.4     5.7  22.1
...
2023 02 03    21 31 59.0 -00 36 51   4.4006  3.4737    17.5     4.9  22.1
...
2023 02 11    21 42 12.4 +00 14 16   4.4149  3.4688    14.6     4.1  22.1
...
2023 02 26    22 01 19.0 +01 59 16   4.4131  3.4593    13.7     3.9  22.1

(MPEC 2023-B135、CBET 5210)

スレッド表示 | 新しいものから 前のトピック | 次のトピック | トップ

投稿するにはまず登録を
 
© 1999 Tsutomu Seki.